Satellite-Ground Cal/Val Site Overpasses Predictions

Prediction of Satellite NPP Overpassing Cal/Val Site: Antarctic Dome C

Ground Cal/Val Site Location: Latitude: -75.10, Longitude: 123.35; Satellite-Ground Site NADIR distance within 100 km.

Table of predicted overpasses for the next 14.0 days since TLE Epoch: 12/27/2019
Interval Starting Time Ending Time Minimum Distance Time Minimum Distance (km)
1 12/28/2019 07:43:45 12/28/2019 07:44:06 12/28/2019 07:43:55 71.26
2 12/29/2019 07:24:51 12/29/2019 07:25:19 12/29/2019 07:25:05 36.77
3 12/31/2019 15:07:16 12/31/2019 15:07:25 12/31/2019 15:07:20 94.28
4 01/01/2020 14:48:16 01/01/2020 14:48:44 01/01/2020 14:48:30 16.92
5 01/03/2020 07:31:04 01/03/2020 07:31:33 01/03/2020 07:31:18 1.76
6 01/06/2020 14:54:29 01/06/2020 14:54:58 01/06/2020 14:54:43 19.26
7 01/07/2020 14:35:46 01/07/2020 14:36:00 01/07/2020 14:35:53 87.73
8 01/08/2020 07:37:18 01/08/2020 07:37:45 01/08/2020 07:37:31 35.51


NCC Satellite Cal/Val Overpasses Prediction Service
